[[{"header":{"parameterUnit":"m.s-1","parameterCategory":1,"la1":30.2991,"la2":30.254,"lo1":-89.0895,"lo2":-89.0444,"dy":0.0017,"dx":0.0017,"nx":28,"ny":28,"refTime":"2023-08-14T21:00:00:Z","depth":0,"parameterNumber":2,"parameterNumberName":"U-component_of_WINDS"},"data":[0,0,0,0,0,0,0,0,0,0,0,0,0,0,0,0,0,0,0,0,0,0,0,0,0,0,0,0,0,0,0,0,0,0,0,0,0,0,0,0,0,0,0,0,0,0,0,0,0,0,0,0,0,0,0,0,0,0,4.698,4.6981,0,4.7078,4.7079,4.708,4.6998,4.6994,4.6991,4.6988,4.7088,4.7093,4.7099,0,0,0,0,0,0,0,0,0,0,0,0,0,4.6724,4.6729,4.698,4.6982,4.6983,4.7077,4.7079,4.708,4.6998,4.6994,4.699,4.6986,4.7086,4.7093,4.71,0,0,0,0,0,0,0,0,0,0,0,0,0,4.6829,4.673,4.698,4.6953,4.6952,4.7077,4.7079,4.708,4.6999,4.6994,4.6989,4.6984,4.7083,4.7092,4.71,4.7257,0,0,4.7127,4.7131,0,0,0,0,0,0,0,0,4.6824,4.6839,4.6956,4.6955,4.6954,4.702,4.7025,4.714,4.7001,4.6981,4.6988,4.6982,4.7069,4.7079,4.7108,4.7262,4.7266,4.7128,4.7133,4.7137,4.714,0,0,0,0,0,0,0,4.6816,4.6834,4.7019,4.6958,4.6957,4.6936,4.6946,4.7046,4.7053,4.6983,4.6977,4.699,4.7068,4.71,4.711,4.7268,4.7128,4.7136,4.7141,4.7144,4.7553,4.7559,0,0,0,0,0,0,4.6812,4.6829,4.7016,4.7022,4.6875,4.6945,4.6956,4.7004,4.7052,4.7054,4.6994,4.6985,4.7088,4.71,4.7113,4.7299,4.7137,4.7145,4.715,4.7548,4.7554,4.7561,0,0,0,0,0,0,4.6807,4.6829,4.7012,4.6924,4.6945,4.6955,4.701,4.7009,4.7041,4.706,4.7061,4.7026,4.7084,4.7101,4.7222,4.7301,4.7149,4.7157,4.7541,4.755,4.7558,4.7672,0,0,0,0,0,0,4.68,4.6828,4.6887,4.6926,4.695,4.7119,4.7015,4.7014,4.7056,4.7046,4.709,4.7092,4.7081,4.7209,4.723,4.731,4.7164,4.7534,4.7545,4.7555,4.7661,4.7683,4.7702,0,0,0,0,0,4.6791,4.6916,4.6891,4.6914,4.7025,4.7124,4.7138,4.7122,4.7063,4.7123,4.7135,4.7091,4.7289,4.7222,4.7246,4.7329,4.7529,4.7542,4.7554,4.7652,4.7679,4.7701,0,0,0,0,0,0,4.6887,4.692,4.6893,4.7035,4.7077,4.711,4.7185,4.7152,4.7212,4.72,4.7178,4.7189,4.7316,4.7335,4.7259,4.7483,4.7399,4.7417,4.7466,4.7491,4.7512,4.7504,4.7171,0,0,0,0,0,4.6925,4.7002,4.7027,4.7149,4.7172,4.7175,4.7217,4.7202,4.7245,4.7262,4.7283,4.7327,4.7398,4.7446,4.7513,4.7664,4.7671,4.7733,4.7753,4.777,4.7785,4.7865,4.7892,4.7602,4.7602,4.7602,0,0,4.7003,4.7031,4.7081,4.7169,4.72,4.728,4.7191,4.7279,4.7338,4.7276,4.739,4.7408,4.7455,4.7591,4.7651,4.761,4.7867,4.7786,4.7799,4.7806,4.7881,4.7908,4.7933,4.7611,4.7609,4.7608,0,0,4.7187,4.7217,4.7321,4.7354,4.7402,4.7403,4.7428,4.7466,4.7475,4.759,4.7545,4.7615,4.7739,4.7774,4.7808,4.8006,4.7967,4.8029,4.8135,4.8213,4.8236,4.8256,4.8325,4.835,4.8044,4.8044,4.8045,0,4.7279,4.7397,4.7379,4.7471,4.7511,4.7458,4.7564,4.7596,4.7664,4.7693,4.7646,4.78,4.7829,4.7971,4.8019,4.8049,4.8077,4.8023,4.8234,4.8254,4.8273,4.8338,4.8365,4.8051,4.8051,4.805,4.8049,0,4.7507,4.759,4.7669,4.7735,4.7784,4.7883,4.7879,4.7931,4.7911,4.7918,4.8035,4.8067,4.8139,4.8172,4.8154,4.8313,4.8285,4.8237,4.8152,4.8308,4.8369,4.8394,4.8061,4.8059,4.8057,4.8055,0,0,4.7753,4.7808,4.7838,4.7866,4.7916,4.7979,4.8076,4.8146,4.819,4.8239,4.8318,4.8425,4.838,4.8419,4.8405,4.8474,4.8626,4.8416,4.8417,4.8453,4.8801,4.8836,4.8866,4.8602,4.8606,4.861,4.8797,0,4.7938,4.8105,4.8091,4.8248,4.8324,4.8276,4.8359,4.8398,4.8407,4.8472,4.8481,4.8557,4.8493,4.8516,4.8582,4.8594,4.8696,4.858,4.8674,4.8678,4.8662,4.8898,4.8935,4.911,4.8821,4.8825,4.8828,0,4.8176,4.8232,4.8397,4.8434,4.8466,4.8541,4.8604,4.8668,4.8711,4.8712,4.8756,4.873,4.8826,4.8741,4.8872,4.8794,4.8832,4.8844,4.885,4.8857,4.8761,4.891,4.9165,4.9191,4.8866,4.8863,4.886,0,4.8337,4.8455,4.8568,4.8595,4.8641,4.8695,4.8717,4.8755,4.8798,4.8854,4.8881,4.8948,4.8984,4.9035,4.9028,4.8967,4.9162,4.9076,4.9165,4.9165,4.9207,4.9204,4.947,4.9234,4.9234,4.9233,4.9233,0,4.8544,4.8647,4.8641,4.8711,4.8824,4.8808,4.892,4.8936,4.897,4.9042,4.9004,4.9072,4.9059,4.9126,4.9121,4.923,4.9248,4.9251,4.9248,4.9253,4.9253,4.9276,4.9263,4.924,4.9239,4.9237,4.9236,0,4.8744,4.8744,4.8864,4.8898,4.8909,4.8991,4.902,4.9085,4.9091,4.9182,4.9202,4.9211,4.9289,4.9286,4.9375,4.9372,4.9505,4.9489,4.9491,4.9487,4.9575,4.9566,4.9865,4.9902,4.9643,4.9646,4.9648,0,4.8875,4.8952,4.8995,4.904,4.9065,4.9138,4.9182,4.9169,4.9216,4.927,4.933,4.9404,4.9462,4.9589,4.9603,4.967,4.9654,4.9754,4.9664,4.9667,4.9654,4.9649,4.9656,4.9772,4.9774,4.9777,4.9779,0,4.9108,4.9104,4.9168,4.9233,4.9286,4.9336,4.9382,4.9422,4.9413,4.9468,4.9547,4.9592,4.9682,4.9756,4.9821,4.9843,4.981,4.9807,4.9831,4.9837,4.9833,4.9835,4.9537,4.98,4.9798,4.9796,4.9795,4.9794,4.9276,4.9342,4.9382,4.9454,4.9488,4.9532,4.9594,4.9608,4.9673,4.9745,4.9734,4.9822,4.9862,4.9945,4.9973,5.0042,5.0006,5.0041,5.005,5.0058,5.0067,4.9824,5.0054,5.0053,5.0053,5.0052,5.0052,0,4.9505,4.9528,4.9595,4.9661,4.9718,4.9682,4.9731,4.9781,4.9859,4.9899,4.9958,5.0048,5.0119,5.0139,5.0207,5.0258,5.0245,5.0277,5.0272,5.0277,5.0096,5.0068,5.0286,5.0286,5.0286,5.0286,5.0286,5.0286,4.9631,4.9741,4.9742,4.9867,4.9889,4.9975,5.0006,5.0046,5.0078,5.0181,5.0239,5.0252,5.0284,5.0354,5.0418,5.0422,5.0448,5.0486,5.0484,5.0314,5.029,5.0268,5.0241,5.0493,5.0493,5.0659,5.0661,5.0662]},{"header":{"parameterUnit":"m.s-1","parameterCategory":1,"la1":30.2991,"la2":30.254,"lo1":-89.0895,"lo2":-89.0444,"dy":0.0017,"dx":0.0017,"nx":28,"ny":28,"refTime":"2023-08-14T21:00:00:Z","depth":0,"parameterNumber":3,"parameterNumberName":"V-component_of_WINDS"},"data":[0,0,0,0,0,0,0,0,0,0,0,0,0,0,0,0,0,0,0,0,0,0,0,0,0,0,0,0,0,0,0,0,0,0,0,0,0,0,0,0,0,0,0,0,0,0,0,0,0,0,0,0,0,0,0,0,0,0,0.4471,0.4472,0,0.4544,0.4545,0.4546,0.4568,0.4568,0.4568,0.4567,0.4644,0.4646,0.4649,0,0,0,0,0,0,0,0,0,0,0,0,0,0.4353,0.4355,0.4471,0.4472,0.4473,0.4544,0.4545,0.4546,0.4568,0.4568,0.4567,0.4567,0.4643,0.4646,0.4649,0,0,0,0,0,0,0,0,0,0,0,0,0,0.4413,0.4355,0.4471,0.4492,0.4495,0.4543,0.4545,0.4546,0.4568,0.4568,0.4567,0.4567,0.4642,0.4646,0.4649,0.4682,0,0,0.466,0.4662,0,0,0,0,0,0,0,0,0.4409,0.4417,0.4488,0.4491,0.4494,0.4546,0.4531,0.4592,0.4569,0.4541,0.4567,0.4567,0.4612,0.4618,0.4633,0.4686,0.4689,0.4661,0.4663,0.4664,0.4665,0,0,0,0,0,0,0,0.4405,0.4414,0.45,0.4489,0.4493,0.4499,0.4507,0.4543,0.4579,0.4543,0.4545,0.4553,0.4614,0.463,0.4635,0.469,0.466,0.4664,0.4666,0.4667,0.4773,0.4773,0,0,0,0,0,0,0.4397,0.441,0.4498,0.4502,0.4449,0.4502,0.4511,0.453,0.4578,0.4585,0.4553,0.4554,0.4624,0.4631,0.4638,0.4679,0.4664,0.4668,0.467,0.4772,0.4773,0.4774,0,0,0,0,0,0,0.4394,0.4405,0.4495,0.4457,0.4469,0.4504,0.4526,0.4532,0.4548,0.4586,0.4593,0.4563,0.4624,0.4633,0.4671,0.4682,0.4669,0.4672,0.4771,0.4772,0.4773,0.4762,0,0,0,0,0,0,0.4391,0.4403,0.4416,0.4457,0.4471,0.4526,0.4527,0.4534,0.4554,0.4555,0.4597,0.4603,0.4624,0.4665,0.4674,0.4687,0.4675,0.477,0.4772,0.4773,0.4762,0.4763,0.4764,0,0,0,0,0,0.4387,0.4411,0.4417,0.4427,0.4487,0.4526,0.4534,0.4557,0.4554,0.4568,0.4592,0.4602,0.4679,0.4669,0.4679,0.4693,0.477,0.4771,0.4773,0.4761,0.4763,0.4764,0,0,0,0,0,0,0.4371,0.4416,0.4423,0.4461,0.449,0.453,0.4547,0.4557,0.4588,0.4588,0.4615,0.4624,0.466,0.468,0.4668,0.4727,0.4725,0.4729,0.4713,0.4714,0.4715,0.471,0.4678,0,0,0,0,0,0.4372,0.44,0.4438,0.4467,0.4481,0.4512,0.453,0.4544,0.4575,0.4588,0.4615,0.4645,0.4676,0.4696,0.4727,0.4764,0.4774,0.4779,0.478,0.478,0.4784,0.4805,0.4808,0.4779,0.4779,0.4778,0,0,0.4374,0.4402,0.4418,0.4465,0.4489,0.4517,0.4522,0.4552,0.4573,0.4593,0.463,0.4651,0.4686,0.4724,0.4742,0.4742,0.4793,0.4782,0.4783,0.4785,0.4807,0.4809,0.4812,0.478,0.4779,0.4779,0,0,0.4393,0.4417,0.4444,0.4468,0.4503,0.4523,0.4529,0.4568,0.4583,0.462,0.4635,0.4661,0.4714,0.4739,0.4758,0.4785,0.4795,0.4794,0.4799,0.482,0.4822,0.4824,0.4834,0.4837,0.4797,0.4797,0.4797,0,0.4392,0.4435,0.4457,0.4486,0.4506,0.4524,0.4552,0.4574,0.4618,0.4631,0.463,0.4697,0.4722,0.4765,0.4772,0.4787,0.4795,0.479,0.482,0.4822,0.4824,0.4834,0.4838,0.4796,0.4796,0.4796,0.4797,0,0.4432,0.4461,0.4479,0.452,0.4542,0.457,0.4597,0.4617,0.4629,0.4649,0.4687,0.4718,0.4755,0.4766,0.4779,0.4811,0.481,0.4814,0.4813,0.4826,0.4836,0.484,0.4796,0.4796,0.4796,0.4796,0,0,0.4444,0.4496,0.4502,0.4521,0.4561,0.4584,0.4613,0.4649,0.4665,0.4695,0.472,0.4764,0.4767,0.4789,0.4805,0.4823,0.4842,0.4824,0.4826,0.4827,0.488,0.4877,0.4881,0.4849,0.4849,0.485,0.4877,0,0.4468,0.452,0.4541,0.4583,0.4611,0.4627,0.4653,0.468,0.4699,0.4726,0.4748,0.4778,0.478,0.4794,0.4812,0.4836,0.4853,0.4834,0.4873,0.4874,0.4864,0.4886,0.4883,0.4907,0.4881,0.4881,0.4882,0,0.4504,0.4533,0.4578,0.4614,0.4626,0.4649,0.4682,0.4707,0.4739,0.4751,0.4775,0.479,0.4821,0.4817,0.486,0.4847,0.4864,0.4878,0.488,0.4885,0.4879,0.4892,0.4915,0.4919,0.4888,0.4887,0.4887,0,0.4509,0.4559,0.4592,0.4608,0.465,0.4666,0.4684,0.4715,0.4735,0.4764,0.4777,0.481,0.4829,0.4854,0.4877,0.4872,0.4919,0.4916,0.4931,0.493,0.4941,0.494,0.4968,0.4951,0.4951,0.495,0.495,0,0.4534,0.4561,0.4595,0.4615,0.4646,0.4669,0.4699,0.4719,0.4746,0.4771,0.4787,0.481,0.4839,0.4866,0.4884,0.4918,0.4926,0.4937,0.4942,0.4936,0.4935,0.4949,0.4948,0.4951,0.4951,0.4951,0.4951,0,0.4545,0.4569,0.4606,0.4643,0.4653,0.4674,0.4706,0.4727,0.4746,0.4778,0.4786,0.4817,0.485,0.4875,0.4917,0.4929,0.4965,0.497,0.4954,0.4957,0.497,0.4968,0.5008,0.5014,0.4992,0.4992,0.4992,0,0.456,0.4581,0.462,0.4637,0.4656,0.4684,0.4704,0.4727,0.4747,0.4784,0.48,0.4834,0.4862,0.4913,0.4939,0.4972,0.4978,0.4989,0.4983,0.4976,0.4979,0.4977,0.4979,0.499,0.4991,0.4991,0.4991,0,0.4584,0.4594,0.4622,0.4654,0.4677,0.4703,0.473,0.4743,0.4771,0.4793,0.4826,0.4848,0.489,0.4924,0.4959,0.4978,0.4989,0.4992,0.4997,0.4992,0.4982,0.4988,0.4957,0.4992,0.4992,0.4991,0.4991,0.4991,0.4598,0.4617,0.4647,0.4678,0.47,0.4724,0.4745,0.4767,0.4794,0.4831,0.4843,0.4877,0.4907,0.4955,0.4975,0.5002,0.5003,0.501,0.5012,0.5014,0.5013,0.4977,0.5009,0.5009,0.5009,0.5009,0.5009,0,0.4623,0.4643,0.467,0.4707,0.473,0.4737,0.4767,0.4787,0.4816,0.4843,0.487,0.4908,0.494,0.4968,0.5001,0.5018,0.5024,0.5026,0.5025,0.5029,0.5011,0.5003,0.502,0.502,0.502,0.502,0.502,0.502,0.4639,0.4672,0.4686,0.473,0.475,0.4782,0.4799,0.4821,0.4843,0.4884,0.491,0.4928,0.4956,0.4991,0.5021,0.5029,0.504,0.5041,0.505,0.5032,0.5031,0.5029,0.5022,0.5043,0.5043,0.5067,0.5067,0.5067]}]]